Regional Weather Roundup
Issued by NWS

Home | Current Version | Previous Version | Text Only | Print | Product List | Glossary On
Versions: 1 2 3 4 5 6 7 8 9 10 11 12 13 14 15 16 17 18 19 20 21 22 23 24 25 26 27 28 29 30 31 32 33 34 35 36 37
000
ASUS42 KKEY 231710
RWRKEY

FLORIDA REGIONAL WEATHER ROUNDUP FOR THE FLORIDA KEYS
NATIONAL WEATHER SERVICE KEY WEST FLORIDA
100 PM EDT THU OCT 23 2014

...SOUTH FLORIDA AND THE KEYS...

CITY           SKY/WX    TMP DP  RH WIND       PRES   REMARKS
FORT MYERS     MOSUNNY   82  67  60 NE16      29.93F
SW REGIONAL AP CLOUDY    80  66  62 NE18      29.94F
NAPLES         PTSUNNY   83  70  64 E16       29.92F
MIAMI          PTSUNNY   81  72  74 E8        29.91F
WEST KENDALL   PTSUNNY   83  71  67 E13       29.91F
HOMESTEAD      CLOUDY    80  71  75 NE16      29.90F
MARATHON       CLOUDY    82  75  79 NE13      29.87F
BOCA CHICA NAS CLOUDY    79  74  84 NE10      29.87F
KEY WEST INTL  LGT RAIN  78  77  96 E8        29.88F

...INTERNATIONAL WEATHER...

CITY           SKY/WX    TMP DP  RH WIND       PRES   REMARKS
NASSAU BAHAMAS LGT RAIN  73  72  94 SE7       29.96S
CANCUN MEXICO  PTSUNNY   86  75  70 N6        29.98R HX  95
COZUMEL MEXICO PTSUNNY   77  77 100 NW6       29.82R

ADJACENT COASTAL WATERS...

STATION/POSITION TIME  SKY/WX   TEMP    WIND        PRES    WAVE
                                AIR SEA DIR/SP/G            HT/PER
                 (UTC)          (F)     (DEG/KT/KT) (MB)    (FT/S)
PULASKI SHOAL LI 1600            78      50/ 17/ 20 1012.0R
SAND KEY         1637            76      70/ 18/ 21 1011.6F
SOMBRERO KEY     1700            79     110/ 18/ 20 1011.9F
LONG KEY         1600            79 78  110/ 12/ 14 1013.2F
MOLASSES REEF    1700            75 83   90/ 16/ 19 1012.3F
FOWEY ROCKS      1700            79 81   30/ 11/ 13 1013.0F
Buoy 42080       NOT AVBL

$$



USA.gov is the U.S. government's official web portal to all federal, state and local government web resources and services.